SL-16 R/B (23705 NORAD) Tracking and Keplerian Element Data

This shows tracking and keplerian element data for the satellite.

Feedback or suggestion? Click here.




ElementValue
Catalog23705
NameSL-16 R/B
Epoch Orbit35398
Epoch Day16.01462533
Epoch Year2022
RAAN117.1391
Inclination71.0233
Eccentricity0.0014851
Argument of Perigee267.3123
Mean Anonmoly92.63
Mean Motion14.15164426
Decay Rate1.55E-06
L11 23705U 95058B 22016.01462533 .00000155 00000+0 10427-3 0 9996
L22 23705 71.0233 117.1391 0014851 267.3123 92.6300 14.15164426353983

Live tracking and technical data element details for SL-16 R/B (NORAD 23705). SL-16 R/B can be tracked NOW for your location showing map with azimuth and elevation plus other details from your city location.

Track the satellite on the map from your city or location and see movement details for azimuth, elevation, latitude, longitude, range, height, and movement on the map or in text.







IsCatalogInMostPopularTable: catalog: 23705, numindb: 339
Update: records affected: 1



GetName: 23705 SL-16 R/B

Hit Count: updated at: Mon, 17 Jan 2022 02:05:48 GMT